[[[{"header":{"parameterUnit":"kt","parameterCategory":2,"dx":1,"dy":1,"la1":30.253999710083008,"la2":30.299108505249023,"lo1":-89.0895004272461,"lo2":-89.04439544677734,"nx":28,"ny":28,"refTime":"2022-10-29T21:00:00:Z","depth":0,"parameterNumber":1,"parameterNumberName":"U-component_of_WINDS"},"data":[-11.9524,-11.9734,-11.9794,-12.006,-12.0159,-12.035,-12.0437,-12.0556,-12.0665,-12.0899,-12.1044,-12.1124,-12.1254,-12.1439,-12.1597,-12.1628,-12.1689,-12.1721,-12.1751,-12.1558,-12.1534,-12.1512,-12.1465,-12.1735,-12.1736,-12.1942,-12.1943,-12.1945,-11.9381,-11.9481,-11.964,-11.9833,-11.997,-11.9976,-12.0129,-12.0241,-12.0411,-12.0547,-12.0693,-12.0902,-12.1074,-12.1196,-12.137,-12.1467,-12.1477,-12.151,-12.15,-12.152,-12.1317,-12.1267,-12.1499,-12.1499,-12.1499,-12.1499,-12.1499,-12.1499,-11.9134,-11.9257,-11.9409,-11.9581,-11.9695,-11.9823,-11.995,-12.0046,-12.02,-12.039,-12.043,-12.0622,-12.0767,-12.1005,-12.1098,-12.1249,-12.1222,-12.1274,-12.1287,-12.1297,-12.1301,-12.0991,-12.1282,-12.1281,-12.1281,-12.1281,-12.128,0,-11.8969,-11.9011,-11.9166,-11.934,-11.9469,-11.9608,-11.9745,-11.9826,-11.9929,-12.0052,-12.0234,-12.0348,-12.0573,-12.0748,-12.0924,-12.101,-12.1022,-12.1032,-12.1067,-12.1047,-12.1009,-12.1027,-12.0689,-12.102,-12.1018,-12.1017,-12.1016,-12.1015,-11.872,-11.8858,-11.9044,-11.9145,-11.9234,-11.9396,-11.9504,-11.9585,-11.9695,-11.9875,-11.9978,-12.0157,-12.0302,-12.0582,-12.0687,-12.0854,-12.086,-12.098,-12.0884,-12.0863,-12.0857,-12.0846,-12.0859,-12.0994,-12.0997,-12.0999,-12.1001,0,-11.8573,-11.8668,-11.8899,-11.9069,-11.9116,-11.9255,-11.9399,-11.9524,-11.9602,-11.9785,-11.9832,-11.9951,-12.0127,-12.0213,-12.0431,-12.047,-12.0697,-12.0702,-12.0648,-12.0651,-12.0765,-12.0751,-12.1124,-12.1176,-12.0902,-12.0904,-12.0907,0,-11.8395,-11.8572,-11.8702,-11.883,-11.903,-11.9106,-11.93,-11.9385,-11.9511,-11.9656,-11.9686,-11.982,-11.9909,-12.0057,-12.0115,-12.0317,-12.0358,-12.0398,-12.041,-12.0393,-12.0387,-12.0446,-12.043,-12.0437,-12.0435,-12.0434,-12.0432,0,-11.8151,-11.8428,-11.8639,-11.8716,-11.8912,-11.901,-11.9095,-11.9235,-11.9339,-11.9488,-11.9556,-11.9723,-11.9814,-11.9943,-12.0014,-11.9946,-12.0264,-12.0185,-12.0304,-12.0302,-12.0364,-12.0358,-12.0674,-12.043,-12.0429,-12.0428,-12.0428,0,-11.8017,-11.8169,-11.8461,-11.8624,-11.8693,-11.8832,-11.9002,-11.9141,-11.9286,-11.9331,-11.9449,-11.9476,-11.9661,-11.9576,-11.9832,-11.9722,-11.9809,-11.9866,-11.9876,-11.9892,-11.9792,-11.9953,-12.0248,-12.028,-11.9915,-11.9911,-11.9907,0,-11.7711,-11.8031,-11.8096,-11.8372,-11.853,-11.8552,-11.8708,-11.8835,-11.8909,-11.9052,-11.9133,-11.9296,-11.9251,-11.9313,-11.9429,-11.9517,-11.966,-11.9501,-11.9702,-11.9708,-11.9658,-11.9933,-11.9952,-12.0175,-11.9854,-11.9859,-11.9863,0,-11.7483,-11.7719,-11.7763,-11.7854,-11.8035,-11.8167,-11.8347,-11.8525,-11.8617,-11.8757,-11.8907,-11.9139,-11.9114,-11.9215,-11.9254,-11.937,-11.9565,-11.9326,-11.933,-11.9363,-11.9835,-11.9852,-11.989,-11.9566,-11.9572,-11.9578,-11.9821,0,-11.7255,-11.7426,-11.7551,-11.7749,-11.7865,-11.8042,-11.8132,-11.8242,-11.8268,-11.834,-11.8563,-11.8687,-11.8866,-11.8931,-11.8956,-11.9196,-11.9168,-11.9138,-11.9056,-11.9237,-11.9319,-11.9353,-11.8927,-11.8925,-11.8923,-11.8922,0,0,-11.6934,-11.7181,-11.7245,-11.7421,-11.7522,-11.7539,-11.772,-11.782,-11.8021,-11.809,-11.8047,-11.839,-11.8492,-11.8752,-11.8815,-11.8889,-11.8938,-11.887,-11.9151,-11.9176,-11.92,-11.9286,-11.932,-11.8919,-11.8919,-11.8918,-11.8917,0,-11.6868,-11.6976,-11.7155,-11.7262,-11.7423,-11.749,-11.7534,-11.7694,-11.7748,-11.7967,-11.7973,-11.8117,-11.8389,-11.8495,-11.8585,-11.8844,-11.8838,-11.8892,-11.9001,-11.9132,-11.9159,-11.9184,-11.9273,-11.9305,-11.8914,-11.8914,-11.8914,0,-11.6656,-11.6776,-11.6872,-11.7104,-11.7208,-11.737,-11.7308,-11.7482,-11.7602,-11.7606,-11.7822,-11.7902,-11.8051,-11.8287,-11.8395,-11.8357,-11.8741,-11.8636,-11.8648,-11.866,-11.8792,-11.8824,-11.8853,-11.8469,-11.8467,-11.8465,0,0,-11.6585,-11.6745,-11.6895,-11.7095,-11.7161,-11.7263,-11.7357,-11.7392,-11.7527,-11.758,-11.7682,-11.7812,-11.7971,-11.8073,-11.8226,-11.8472,-11.8507,-11.8577,-11.8599,-11.8615,-11.8636,-11.8772,-11.8804,-11.8458,-11.8458,-11.8457,0,0,-11.655,-11.6733,-11.6735,-11.6979,-11.7109,-11.7267,-11.7385,-11.739,-11.7537,-11.7525,-11.7589,-11.7626,-11.7848,-11.7925,-11.7819,-11.8197,-11.8115,-11.8143,-11.8137,-11.8165,-11.8186,-11.816,-11.7768,0,0,0,0,0,-11.6526,-11.6711,-11.6711,-11.6765,-11.7055,-11.7268,-11.7305,-11.7363,-11.7304,-11.7397,-11.7483,-11.7471,-11.7881,-11.7789,-11.784,-11.7956,-11.8365,-11.8381,-11.8397,-11.8449,-11.8477,-11.8501,0,0,0,0,0,0,-11.6548,-11.6614,-11.6706,-11.6871,-11.6937,-11.7262,-11.7174,-11.7195,-11.7295,-11.729,-11.7455,-11.7476,-11.7528,-11.7766,-11.7812,-11.7921,-11.7753,-11.8371,-11.8385,-11.8398,-11.8459,-11.8481,-11.8501,0,0,0,0,0,-11.6565,-11.6618,-11.707,-11.6869,-11.6926,-11.7047,-11.7168,-11.7185,-11.7263,-11.7395,-11.7416,-11.7297,-11.7529,-11.7572,-11.7794,-11.7898,-11.7722,-11.7739,-11.838,-11.8391,-11.8401,-11.847,0,0,0,0,0,0,-11.6578,-11.6635,-11.7082,-11.7102,-11.6803,-11.703,-11.7068,-11.7175,-11.7362,-11.7385,-11.7239,-11.7233,-11.7533,-11.7565,-11.7598,-11.7888,-11.7696,-11.7714,-11.7724,-11.8389,-11.8397,-11.8405,0,0,0,0,0,0,-11.6606,-11.6651,-11.7092,-11.7006,-11.7016,-11.7014,-11.7048,-11.7244,-11.7364,-11.7196,-11.7196,-11.7234,-11.7483,-11.7561,-11.7586,-11.789,-11.7677,-11.7693,-11.7705,-11.7712,-11.8396,-11.8403,0,0,0,0,0,0,-11.6626,-11.6665,-11.7001,-11.7009,-11.7017,-11.7241,-11.7188,-11.7482,-11.7292,-11.7187,-11.7276,-11.7269,-11.748,-11.7506,-11.7579,-11.7872,-11.7886,-11.7678,-11.7689,-11.7697,-11.7702,0,0,0,0,0,0,0,-11.6642,-11.6372,-11.6967,-11.7012,-11.7019,-11.7282,-11.7288,-11.7293,-11.729,-11.7284,-11.7278,-11.7272,-11.7584,-11.7601,-11.762,-11.7857,0,0,-11.7676,-11.7684,0,0,0,0,0,0,0,0,-11.6357,-11.6368,-11.6968,-11.6972,-11.6976,-11.7283,-11.7288,-11.7292,-11.7289,-11.7284,-11.7279,-11.7274,-11.7588,-11.7603,-11.7618,0,0,0,0,0,0,0,0,0,0,0,0,0,0,0,-11.6968,-11.6971,0,-11.7284,-11.7287,-11.7291,-11.7289,-11.7284,-11.728,-11.7276,-11.7592,-11.7604,-11.7617,0,0,0,0,0,0,0,0,0,0,0,0,0,0,0,0,0,0,0,0,0,0,0,0,0,0,0,0,0,0,0,0,0,0,0,0,0,0,0,0,0,0,0,0,0,0,0,0,0,0,0,0,0,0,0,0,0,0,0,0,0,0,0,0,0,0,0,0,0]}],[{"header":{"parameterUnit":"kt","parameterCategory":2,"dx":1,"dy":1,"la1":30.253999710083008,"la2":30.299108505249023,"lo1":-89.0895004272461,"lo2":-89.04439544677734,"nx":28,"ny":28,"refTime":"2022-10-29T21:00:00:Z","depth":0,"parameterNumber":2,"parameterNumberName":"V-component_of_WINDS"},"data":[6.3438,6.3528,6.3499,6.359,6.3577,6.3634,6.3644,6.3654,6.3653,6.3717,6.3747,6.3723,6.3708,6.3736,6.3766,6.3754,6.3771,6.383,6.3806,6.3573,6.3539,6.3506,6.3484,6.3833,6.3834,6.4054,6.4056,6.4057,6.3285,6.3275,6.3311,6.3326,6.3359,6.3286,6.3291,6.3322,6.3373,6.3371,6.3397,6.3448,6.3483,6.3444,6.3473,6.3515,6.3481,6.3525,6.3523,6.3523,6.3272,6.3249,6.3553,6.3553,6.3553,6.3553,6.3553,6.3553,6.2998,6.3052,6.3042,6.308,6.3078,6.3088,6.3133,6.3101,6.3135,6.3159,6.311,6.3165,6.3154,6.3166,6.3161,6.3204,6.3147,6.3184,6.3194,6.3206,6.3226,6.2926,6.3205,6.3204,6.3203,6.3202,6.3201,0,6.2778,6.2749,6.2778,6.2801,6.2826,6.2839,6.2844,6.287,6.2788,6.2818,6.2859,6.2877,6.291,6.2944,6.2959,6.2943,6.2867,6.2852,6.2878,6.2906,6.2934,6.2926,6.2525,6.2843,6.284,6.2838,6.2836,6.2835,6.2491,6.2554,6.2523,6.2549,6.2542,6.2583,6.26,6.2521,6.2543,6.2536,6.2586,6.2617,6.2638,6.2705,6.2661,6.2684,6.2647,6.2774,6.2649,6.2676,6.2655,6.2654,6.2663,6.28,6.2805,6.2808,6.2811,0,6.2334,6.2276,6.2361,6.232,6.2312,6.2383,6.2347,6.2395,6.2354,6.2414,6.2423,6.2358,6.2397,6.233,6.2357,6.2322,6.2443,6.2403,6.245,6.244,6.2551,6.2544,6.2911,6.2958,6.2589,6.2593,6.2596,0,6.2067,6.215,6.2059,6.2111,6.2203,6.2119,6.2212,6.2185,6.2169,6.2215,6.2115,6.2161,6.2065,6.2102,6.2047,6.2133,6.2135,6.2114,6.21,6.2125,6.2129,6.2135,6.212,6.2056,6.2054,6.2052,6.2051,0,6.1829,6.1872,6.1956,6.1957,6.1917,6.1958,6.1943,6.1922,6.1937,6.1945,6.1954,6.1968,6.1977,6.199,6.1922,6.184,6.2021,6.1894,6.2,6.2002,6.2043,6.2042,6.2384,6.2049,6.2048,6.2047,6.2047,0,6.1602,6.1613,6.174,6.1706,6.172,6.1772,6.1782,6.181,6.1795,6.1764,6.1768,6.1691,6.1754,6.1636,6.1723,6.1638,6.1654,6.1636,6.1643,6.1645,6.1514,6.1721,6.205,6.2084,6.1649,6.1646,6.1643,0,6.1351,6.146,6.1386,6.1507,6.1548,6.1434,6.1491,6.1477,6.144,6.1469,6.1426,6.1458,6.1353,6.1353,6.1405,6.1362,6.1473,6.1345,6.1392,6.1395,6.1406,6.1706,6.1774,6.1986,6.1599,6.1604,6.1607,0,6.1146,6.1092,6.1118,6.1115,6.108,6.1111,6.1175,6.1187,6.1212,6.1202,6.1256,6.1294,6.122,6.1218,6.1154,6.1212,6.1396,6.1121,6.1119,6.1178,6.1568,6.1634,6.167,6.134,6.1346,6.135,6.1572,0,6.0829,6.087,6.0936,6.0925,6.0937,6.1004,6.0928,6.095,6.0889,6.0845,6.0918,6.0881,6.089,6.0907,6.0844,6.0997,6.096,6.0877,6.0755,6.0952,6.1024,6.1052,6.0656,6.0652,6.0649,6.0646,0,0,6.0604,6.0661,6.0572,6.0628,6.0633,6.0508,6.0588,6.0576,6.0555,6.0562,6.0493,6.0542,6.0513,6.0609,6.0664,6.0665,6.0686,6.0617,6.0858,6.0882,6.0904,6.0982,6.1013,6.064,6.0638,6.0637,6.0636,0,6.0472,6.0446,6.0523,6.0508,6.0482,6.0429,6.0449,6.0398,6.0373,6.0439,6.0333,6.0365,6.0401,6.0388,6.0386,6.0605,6.0522,6.0612,6.0759,6.0826,6.0854,6.0879,6.0963,6.0993,6.0628,6.0628,6.0628,0,6.0259,6.0223,6.025,6.0249,6.0228,6.0268,6.0124,6.0169,6.0198,6.0052,6.0119,6.0087,6.0059,6.0156,6.0196,6.0134,6.0378,6.0282,6.0301,6.0304,6.0365,6.0399,6.043,6.0027,6.0025,6.0023,0,0,6.0155,6.019,6.0121,6.0213,6.0209,6.013,6.014,6.0078,6.0055,6.0046,6.0001,5.9983,6.0003,6.0018,6.0032,6.0149,6.0137,6.0211,6.024,6.0263,6.0279,6.0346,6.038,6.0017,6.0017,6.0016,0,0,6.0103,6.0028,5.9968,6.0065,6.0049,5.9984,6.0044,5.9969,5.9973,5.9955,5.9849,5.9838,5.9927,5.9897,5.9819,5.9987,5.9868,5.9885,6.0003,6.0038,6.0066,6.0071,5.9662,0,0,0,0,0,5.9925,6.0038,5.9985,5.9989,5.9981,6.0015,6.0013,5.9928,5.9849,5.9899,5.985,5.9757,5.9835,5.9763,5.9768,5.9855,5.9932,5.9947,5.9961,6.0141,6.0178,6.0209,0,0,0,0,0,0,5.9926,5.9932,5.9981,5.9923,5.992,6.001,5.9856,5.9836,5.9841,5.9823,5.977,5.9755,5.9683,5.9755,5.976,5.9845,5.9659,5.9938,5.9951,5.9962,6.0153,6.0184,6.021,0,0,0,0,0,5.9927,5.993,5.9941,5.9921,5.9919,5.9834,5.9851,5.9833,5.9835,5.9757,5.9739,5.9771,5.9687,5.9686,5.9758,5.9845,5.9655,5.9657,5.9946,5.9956,5.9965,6.0168,0,0,0,0,0,0,5.9927,5.9914,5.9938,5.9934,5.987,5.9827,5.9817,5.9831,5.9766,5.9751,5.9751,5.9738,5.9692,5.969,5.969,5.985,5.9651,5.9654,5.9655,5.9954,5.9962,5.9969,0,0,0,0,0,0,5.9911,5.9912,5.9936,5.9877,5.9866,5.9821,5.9813,5.9858,5.9767,5.9764,5.9751,5.9746,5.9691,5.9694,5.9693,5.9768,5.9648,5.9651,5.9652,5.9653,5.996,5.9966,0,0,0,0,0,0,5.991,5.991,5.9878,5.9869,5.9859,5.9809,5.9859,5.9856,5.9719,5.9769,5.9704,5.9698,5.9698,5.9695,5.9696,5.9772,5.9769,5.9648,5.965,5.9651,5.9652,0,0,0,0,0,0,0,5.9909,5.9926,5.9961,5.9862,5.9853,5.9899,5.9898,5.9897,5.9718,5.9712,5.9706,5.97,5.9634,5.9637,5.964,5.9775,0,0,5.9648,5.9649,0,0,0,0,0,0,0,0,5.9924,5.9925,5.9961,5.996,5.996,5.9899,5.9898,5.9897,5.9717,5.9712,5.9707,5.9703,5.9635,5.9637,5.9639,0,0,0,0,0,0,0,0,0,0,0,0,0,0,0,5.9961,5.996,0,5.9899,5.9898,5.9898,5.9716,5.9712,5.9708,5.9705,5.9635,5.9637,5.9639,0,0,0,0,0,0,0,0,0,0,0,0,0,0,0,0,0,0,0,0,0,0,0,0,0,0,0,0,0,0,0,0,0,0,0,0,0,0,0,0,0,0,0,0,0,0,0,0,0,0,0,0,0,0,0,0,0,0,0,0,0,0,0,0,0,0,0,0,0]}]]]